Weather History for KRUT - January, 2014

Change the Weather History Date:

Sunday, January 12, 2014

  Actual Average Record
Temperature  
Mean Temperature 40 °F -  
Max Temperature 45 °F - - ()
Min Temperature 34 °F - - ()
Degree Days  
Heating Degree Days 25    
Month to date heating degree days 587  
Since 1 July heating degree days 3519  
Cooling Degree Days 0    
Month to date cooling degree days 0  
Year to date cooling degree days 0  
Moisture  
Dew Point 26 °F    
Average Humidity 62    
Maximum Humidity 76    
Minimum Humidity 48    
Precipitation  
Precipitation 0.00 in - - ()
Month to date precipitation 1.63  
Year to date precipitation 1.63  
Sea Level Pressure  
Sea Level Pressure 29.63 in    
Wind  
Wind Speed 11 mph (West)    
Max Wind Speed 22 mph    
Max Gust Speed 31 mph    
Visibility 10 miles    
Events      
T = Trace of Precipitation, MM = Missing Value Source: NWS Daily Summary

Daily Weather History Graph

Daily Weather History Graph

Search for Another Location

Airport or City:

Trip Planner

Search our weather history database for the weather conditions in past years. The results will help you decide how hot, cold, wet, or windy it might be!

Date:

Astronomy

Jan. 12, 2014 Rise Set
Actual Time 7:23 AM EST 4:37 PM EST
Civil Twilight 6:51 AM EST 5:09 PM EST
Nautical Twilight 6:15 AM EST 5:45 PM EST
Astronomical Twilight 5:41 AM EST 6:19 PM EST
Moon 2:03 PM EST (1/12) 4:18 AM EST (1/12)
Length of Visible Light 10h 18m
Length of Day
9h 14m
Waxing Gibbous, 89% of the Moon is Illuminated
Jan 12
Waxing Gibbous
Jan 15
Full
Jan 24
Last Quarter
Jan 30
New
Feb 6
First Quarter

Hourly Weather History & Observations

Time (EST) Temp. Windchill Dew Point Humidity Pressure Visibility Wind Dir Wind Speed Gust Speed Precip Events Conditions
12:15 AM 44.6 °F 43.1 °F 37.4 °F 76% 29.29 in 10.0 mi South 3.5 mph - N/A   Overcast
12:35 AM 44.6 °F 39.2 °F 37.4 °F 76% 29.31 in 10.0 mi SW 10.4 mph 17.3 mph N/A   Overcast
12:55 AM 44.6 °F 40.7 °F 35.6 °F 71% 29.31 in 10.0 mi WSW 6.9 mph 18.4 mph N/A   Overcast
1:15 AM 42.8 °F 37.0 °F 35.6 °F 76% 29.31 in 10.0 mi SW 10.4 mph 20.7 mph N/A   Overcast
1:35 AM 42.8 °F 36.6 °F 33.8 °F 70% 29.32 in 10.0 mi SW 11.5 mph 20.7 mph N/A   Overcast
1:55 AM 42.8 °F 37.5 °F 33.8 °F 70% 29.33 in 10.0 mi West 9.2 mph 24.2 mph N/A   Overcast
2:15 AM 42.8 °F 37.5 °F 33.8 °F 70% 29.34 in 10.0 mi West 9.2 mph 16.1 mph N/A   Overcast
2:35 AM 42.8 °F 35.8 °F 33.8 °F 70% 29.36 in 10.0 mi WSW 13.8 mph 21.9 mph N/A   Overcast
2:55 AM 42.8 °F 38.0 °F 33.8 °F 70% 29.37 in 10.0 mi SW 8.1 mph 18.4 mph N/A   Overcast
3:15 AM 41.0 °F 36.4 °F 32.0 °F 70% 29.38 in 10.0 mi SW 6.9 mph 17.3 mph N/A   Overcast
3:35 AM 39.2 °F 35.0 °F 32.0 °F 75% 29.38 in 10.0 mi SSW 5.8 mph - N/A   Overcast
3:55 AM 39.2 °F 33.6 °F 30.2 °F 70% 29.39 in 10.0 mi WSW 8.1 mph 20.7 mph N/A   Overcast
4:15 AM 39.2 °F 35.0 °F 30.2 °F 70% 29.40 in 10.0 mi West 5.8 mph 16.1 mph N/A   Overcast
4:35 AM 37.4 °F - 30.2 °F 75% 29.40 in 10.0 mi Calm Calm - N/A   Overcast
4:55 AM 37.4 °F 32.1 °F 30.2 °F 75% 29.41 in 10.0 mi West 6.9 mph - N/A   Overcast
5:15 AM 37.4 °F 30.8 °F 30.2 °F 75% 29.42 in 10.0 mi WSW 9.2 mph - N/A   Overcast
5:35 AM 37.4 °F 30.3 °F 28.4 °F 70% 29.42 in 10.0 mi West 10.4 mph 16.1 mph N/A   Overcast
5:55 AM 37.4 °F 30.3 °F 28.4 °F 70% 29.43 in 10.0 mi WSW 10.4 mph 18.4 mph N/A   Mostly Cloudy
6:15 AM 37.4 °F 32.8 °F 28.4 °F 70% 29.44 in 10.0 mi West 5.8 mph - N/A   Overcast
6:35 AM 37.4 °F 30.8 °F 28.4 °F 70% 29.45 in 10.0 mi WSW 9.2 mph 26.5 mph N/A   Overcast
6:55 AM 37.4 °F 29.8 °F 26.6 °F 65% 29.47 in 10.0 mi West 11.5 mph 17.3 mph N/A   Overcast
7:15 AM 37.4 °F 28.5 °F 28.4 °F 70% 29.49 in 10.0 mi West 15.0 mph 19.6 mph N/A   Overcast
7:35 AM 37.4 °F 31.4 °F 28.4 °F 70% 29.50 in 10.0 mi West 8.1 mph - N/A   Overcast
7:55 AM 37.4 °F 31.4 °F 26.6 °F 65% 29.52 in 10.0 mi West 8.1 mph - N/A   Overcast
8:15 AM 37.4 °F 31.4 °F 26.6 °F 65% 29.54 in 10.0 mi NW 8.1 mph - N/A   Overcast
8:35 AM 37.4 °F 31.4 °F 26.6 °F 65% 29.55 in 10.0 mi WNW 8.1 mph - N/A   Overcast
8:55 AM 37.4 °F 27.2 °F 24.8 °F 60% 29.56 in 10.0 mi West 19.6 mph 31.1 mph N/A   Overcast
9:15 AM 37.4 °F 27.5 °F 23.0 °F 56% 29.57 in 10.0 mi WNW 18.4 mph 29.9 mph N/A   Overcast
9:35 AM 37.4 °F 28.9 °F 24.8 °F 60% 29.58 in 10.0 mi West 13.8 mph 24.2 mph N/A   Overcast
9:55 AM 37.4 °F 26.6 °F 24.8 °F 60% 29.59 in 10.0 mi West 21.9 mph 29.9 mph N/A   Overcast
10:15 AM 37.4 °F 28.2 °F 24.8 °F 60% 29.61 in 10.0 mi WNW 16.1 mph 20.7 mph N/A   Overcast
10:35 AM 37.4 °F 27.8 °F 24.8 °F 60% 29.61 in 10.0 mi WNW 17.3 mph 23.0 mph N/A   Overcast
10:55 AM 37.4 °F 29.3 °F 26.6 °F 65% 29.61 in 10.0 mi WNW 12.7 mph 18.4 mph N/A   Overcast
11:15 AM 37.4 °F 27.5 °F 26.6 °F 65% 29.60 in 10.0 mi WNW 18.4 mph 27.6 mph N/A   Overcast
11:35 AM 39.2 °F 33.0 °F 26.6 °F 61% 29.61 in 10.0 mi WNW 9.2 mph 24.2 mph N/A   Overcast
11:55 AM 39.2 °F 30.2 °F 26.6 °F 61% 29.61 in 10.0 mi WNW 17.3 mph 26.5 mph N/A   Overcast
12:15 PM 39.2 °F 30.2 °F 24.8 °F 56% 29.60 in 10.0 mi WNW 17.3 mph 23.0 mph N/A   Overcast
12:35 PM 39.2 °F 30.2 °F 24.8 °F 56% 29.61 in 10.0 mi WNW 17.3 mph 26.5 mph N/A   Overcast
12:55 PM 39.2 °F 33.0 °F 24.8 °F 56% 29.62 in 10.0 mi West 9.2 mph 17.3 mph N/A   Overcast
1:15 PM 39.2 °F 29.8 °F 24.8 °F 56% 29.63 in 10.0 mi West 18.4 mph 25.3 mph N/A   Overcast
1:35 PM 41.0 °F 31.4 °F 24.8 °F 53% 29.65 in 10.0 mi WNW 21.9 mph 32.2 mph N/A   Overcast
1:55 PM 39.2 °F 30.8 °F 21.2 °F 49% 29.65 in 10.0 mi WNW 15.0 mph 27.6 mph N/A   Overcast
2:15 PM 37.4 °F 28.9 °F 23.0 °F 56% 29.65 in 10.0 mi WNW 13.8 mph 20.7 mph N/A   Overcast
2:35 PM 37.4 °F 28.5 °F 24.8 °F 60% 29.66 in 10.0 mi NW 15.0 mph 21.9 mph N/A   Overcast
2:55 PM 37.4 °F 28.5 °F 24.8 °F 60% 29.68 in 10.0 mi WNW 15.0 mph 26.5 mph N/A   Overcast
3:15 PM 37.4 °F 27.2 °F 23.0 °F 56% 29.69 in 10.0 mi West 19.6 mph 26.5 mph N/A   Overcast
3:35 PM 37.4 °F 27.8 °F 21.2 °F 52% 29.71 in 10.0 mi WNW 17.3 mph 27.6 mph N/A   Overcast
3:55 PM 37.4 °F 30.3 °F 21.2 °F 52% 29.73 in 10.0 mi WNW 10.4 mph 27.6 mph N/A   Overcast
4:15 PM 37.4 °F 28.9 °F 19.4 °F 48% 29.75 in 10.0 mi WNW 13.8 mph 26.5 mph N/A   Overcast
4:35 PM 37.4 °F 30.3 °F 21.2 °F 52% 29.77 in 10.0 mi WNW 10.4 mph 17.3 mph N/A   Overcast
4:55 PM 37.4 °F 30.3 °F 21.2 °F 52% 29.78 in 10.0 mi WNW 10.4 mph - N/A   Overcast
5:15 PM 35.6 °F 26.2 °F 23.0 °F 60% 29.80 in 10.0 mi West 15.0 mph 23.0 mph N/A   Overcast
5:35 PM 35.6 °F 27.5 °F 19.4 °F 52% 29.80 in 10.0 mi WNW 11.5 mph 21.9 mph N/A   Overcast
5:55 PM 35.6 °F 27.5 °F 19.4 °F 52% 29.82 in 10.0 mi WNW 11.5 mph 23.0 mph N/A   Overcast
6:15 PM 35.6 °F 27.1 °F 21.2 °F 56% 29.83 in 10.0 mi WNW 12.7 mph 25.3 mph N/A   Overcast
6:35 PM 35.6 °F 26.2 °F 21.2 °F 56% 29.83 in 10.0 mi WNW 15.0 mph 21.9 mph N/A   Overcast
6:55 PM 35.6 °F 25.5 °F 21.2 °F 56% 29.84 in 10.0 mi WNW 17.3 mph 26.5 mph N/A   Overcast
7:15 PM 35.6 °F 26.6 °F 21.2 °F 56% 29.87 in 10.0 mi WNW 13.8 mph 21.9 mph N/A   Overcast
7:35 PM 35.6 °F 28.6 °F 21.2 °F 56% 29.87 in 10.0 mi NW 9.2 mph - N/A   Overcast
7:55 PM 35.6 °F 28.0 °F 21.2 °F 56% 29.87 in 10.0 mi WNW 10.4 mph - N/A   Overcast
8:15 PM 35.6 °F 27.5 °F 21.2 °F 56% 29.88 in 10.0 mi WNW 11.5 mph 17.3 mph N/A   Overcast
8:35 PM 35.6 °F - 21.2 °F 56% 29.90 in 10.0 mi Calm Calm - N/A   Overcast
8:55 PM 35.6 °F 29.2 °F 21.2 °F 56% 29.90 in 10.0 mi WNW 8.1 mph - N/A   Overcast
9:15 PM 35.6 °F 26.6 °F 21.2 °F 56% 29.91 in 10.0 mi WNW 13.8 mph 19.6 mph N/A   Overcast
9:35 PM 35.6 °F 30.7 °F 23.0 °F 60% 29.91 in 10.0 mi WNW 5.8 mph - N/A   Overcast
9:55 PM 35.6 °F 31.7 °F 23.0 °F 60% 29.91 in 10.0 mi WNW 4.6 mph - N/A   Overcast
10:15 PM 35.6 °F 29.9 °F 21.2 °F 56% 29.92 in 10.0 mi West 6.9 mph - N/A   Overcast
10:35 PM 35.6 °F 30.7 °F 21.2 °F 56% 29.92 in 10.0 mi West 5.8 mph - N/A   Overcast
10:55 PM 35.6 °F 32.8 °F 23.0 °F 60% 29.92 in 10.0 mi West 3.5 mph - N/A   Overcast
11:15 PM 35.6 °F 30.7 °F 21.2 °F 56% 29.91 in 10.0 mi West 5.8 mph - N/A   Overcast
11:35 PM 33.8 °F 28.6 °F 23.0 °F 65% 29.94 in 10.0 mi West 5.8 mph - N/A   Overcast
11:55 PM 33.8 °F 26.4 °F 23.0 °F 65% 29.94 in 10.0 mi WSW 9.2 mph - N/A   Overcast